[[{"header":{"parameterUnit":"m.s-1","parameterCategory":1,"la1":30.2992,"la2":30.254,"lo1":-89.0895,"lo2":-89.0443,"dy":0.0025,"dx":0.0025,"nx":19,"ny":19,"refTime":"2026-04-22T03:00:00:Z","depth":0,"parameterNumber":2,"parameterNumberName":"U-component_of_WINDS"},"data":[0,0,0,-3.3456,-3.3459,-3.358,-3.3581,-3.3737,-3.3738,0,0,0,0,0,0,0,0,0,0,0,-3.3422,-3.3423,-3.3456,-3.3459,-3.358,-3.3581,-3.3737,-3.3738,0,0,0,0,0,0,0,0,0,0,0,-3.3421,-3.3422,-3.3424,-3.3459,-3.358,-3.3581,-3.3736,-3.3644,0,0,0,0,0,0,0,0,0,0,-3.3526,-3.3496,-3.3422,-3.3424,-3.346,-3.358,-3.3581,-3.364,-3.365,-3.3683,0,-3.3713,0,-3.3728,-3.3749,-3.375,0,0,0,-3.3457,-3.3487,-3.3519,-3.3424,-3.3461,-3.358,-3.3525,-3.3645,-3.3657,-3.3696,-3.3715,-3.3721,-3.3731,-3.375,-3.3751,-3.3946,-3.3947,0,0,-3.3451,-3.3444,-3.3511,-3.3526,-3.3509,-3.3521,-3.3529,-3.3652,-3.3672,-3.3716,-3.3725,-3.3733,-3.3751,-3.3752,-3.3945,-3.3946,0,0,0,-3.3432,-3.3439,-3.3468,-3.352,-3.3542,-3.3525,-3.3534,-3.3667,-3.3677,-3.3726,-3.3735,-3.3752,-3.3754,-3.3944,-3.3945,-3.3987,0,0,0,-3.3428,-3.3429,-3.3465,-3.3462,-3.354,-3.3606,-3.3545,-3.3668,-3.3682,-3.3735,-3.3752,-3.3755,-3.3943,-3.3945,-3.3983,-3.4007,0,0,0,-3.3413,-3.3427,-3.3445,-3.3461,-3.3514,-3.3604,-3.3621,-3.3671,-3.3688,-3.375,-3.3756,-3.3942,-3.3944,-3.398,-3.4002,-3.4055,0,0,0,-3.3394,-3.348,-3.3446,-3.3545,-3.3513,-3.363,-3.3621,-3.3708,-3.3766,-3.3753,-3.3943,-3.3945,-3.3979,-3.3999,-3.4052,-3.4098,-3.4117,0,0,-3.3499,-3.3492,-3.3551,-3.3524,-3.3645,-3.3612,-3.3739,-3.3798,-3.381,-3.39,-3.3904,-3.3984,-3.4001,-3.4054,-3.4228,-3.4243,0,0,0,-3.3582,-3.3624,-3.3658,-3.3713,-3.3761,-3.3803,-3.3844,-3.3866,-3.3942,-3.3855,-3.4019,-3.4029,-3.4061,-3.4083,-3.4096,-3.4122,-3.3956,-3.3955,-3.3955,-3.3718,-3.373,-3.3827,-3.3853,-3.3907,-3.3948,-3.3992,-3.4028,-3.4023,-3.4062,-3.4088,-3.4192,-3.4218,-3.4228,-3.4256,-3.4115,-3.4115,-3.4115,-3.4115,-3.3871,-3.3931,-3.3924,-3.4015,-3.4026,-3.4103,-3.4146,-3.414,-3.4212,-3.4174,-3.4202,-3.4157,-3.4244,-3.4269,-3.4118,-3.4118,-3.4117,-3.4117,-3.4117,-3.396,-3.3991,-3.4017,-3.4098,-3.4158,-3.4181,-3.4251,-3.4259,-3.4267,-3.4295,-3.4322,-3.4322,-3.432,-3.4308,-3.4308,-3.4308,-3.4309,-3.4309,-3.4309,-3.4042,-3.407,-3.4128,-3.4187,-3.4223,-3.4271,-3.4313,-3.4349,-3.439,-3.439,-3.439,-3.438,-3.4251,-3.4218,-3.4315,-3.4314,-3.4313,-3.4312,-3.4312,-3.419,-3.4158,-3.4248,-3.4284,-3.4353,-3.4412,-3.4421,-3.4493,-3.4523,-3.4557,-3.4542,-3.4446,-3.4439,-3.4429,-3.4401,-3.454,-3.454,-3.454,-3.454,-3.4265,-3.4263,-3.4356,-3.4413,-3.447,-3.4488,-3.4588,-3.4621,-3.4651,-3.467,-3.4652,-3.4616,-3.4605,-3.4605,-3.4591,-3.4565,-3.4743,-3.4743,-3.4743,-3.4356,-3.436,-3.4444,-3.4473,-3.4527,-3.4572,-3.4666,-3.4731,-3.4758,-3.4751,-3.4685,-3.4677,-3.4619,-3.46,-3.459,-3.4568,-3.4521,0,0]},{"header":{"parameterUnit":"m.s-1","parameterCategory":1,"la1":30.2992,"la2":30.254,"lo1":-89.0895,"lo2":-89.0443,"dy":0.0025,"dx":0.0025,"nx":19,"ny":19,"refTime":"2026-04-22T03:00:00:Z","depth":0,"parameterNumber":3,"parameterNumberName":"V-component_of_WINDS"},"data":[0,0,0,4.0572,4.0573,4.0611,4.0611,4.0673,4.0674,0,0,0,0,0,0,0,0,0,0,0,4.057,4.057,4.0572,4.0573,4.0611,4.0611,4.0673,4.0674,0,0,0,0,0,0,0,0,0,0,0,4.0569,4.057,4.0571,4.0573,4.0611,4.0611,4.0673,4.0639,0,0,0,0,0,0,0,0,0,0,4.06,4.0607,4.057,4.0571,4.0573,4.0611,4.0611,4.0637,4.0641,4.0662,0,4.0685,0,4.0681,4.0679,4.068,0,0,0,4.0565,4.0604,4.0606,4.0571,4.0574,4.0611,4.0592,4.0639,4.0644,4.0668,4.0685,4.0687,4.0682,4.068,4.068,4.0828,4.0829,0,0,4.0563,4.0581,4.0603,4.061,4.0606,4.059,4.0593,4.0642,4.0662,4.0686,4.0689,4.0683,4.068,4.0681,4.0827,4.0828,0,0,0,4.0562,4.058,4.0581,4.0607,4.0613,4.0592,4.0595,4.066,4.0658,4.0689,4.0683,4.0681,4.0682,4.0826,4.0827,4.0895,0,0,0,4.0561,4.058,4.058,4.0591,4.0613,4.0637,4.0611,4.0655,4.066,4.0683,4.0681,4.0683,4.0825,4.0827,4.089,4.0923,0,0,0,4.0564,4.058,4.0589,4.0592,4.061,4.0636,4.0637,4.0656,4.0657,4.068,4.0683,4.0824,4.0826,4.0886,4.0916,4.0965,0,0,0,4.0572,4.0648,4.059,4.0673,4.0609,4.0678,4.0637,4.0687,4.0715,4.0681,4.0825,4.0827,4.0885,4.0912,4.0961,4.1008,4.103,0,0,4.0678,4.0662,4.0709,4.0658,4.0742,4.0671,4.0764,4.0773,4.0758,4.0805,4.0809,4.0892,4.0916,4.0964,4.1151,4.1168,0,0,0,4.0748,4.0782,4.0801,4.0828,4.0837,4.0846,4.0839,4.0842,4.0881,4.0787,4.0923,4.0937,4.0965,4.0986,4.1001,4.1023,4.0839,4.0838,4.0838,4.0922,4.09,4.0976,4.0959,4.0986,4.0978,4.0997,4.1,4.097,4.1002,4.1015,4.1131,4.1157,4.1168,4.1191,4.104,4.1041,4.1041,4.1041,4.1073,4.1116,4.1075,4.1133,4.111,4.1159,4.1154,4.1131,4.1171,4.112,4.1143,4.1086,4.1188,4.1207,4.1046,4.1045,4.1044,4.1044,4.1044,4.1182,4.1198,4.1202,4.1239,4.127,4.1251,4.1292,4.1269,4.1248,4.1272,4.1281,4.128,4.1274,4.1278,4.1279,4.1279,4.128,4.128,4.128,4.1292,4.1294,4.1332,4.1348,4.1362,4.1379,4.1372,4.1385,4.1393,4.1373,4.1373,4.1339,4.1203,4.1168,4.1286,4.1285,4.1284,4.1284,4.1283,4.1449,4.141,4.1468,4.1483,4.15,4.1531,4.1503,4.1532,4.154,4.1561,4.1522,4.1426,4.1407,4.1395,4.1366,4.1528,4.1528,4.1528,4.1528,4.1539,4.1528,4.1582,4.1607,4.1628,4.1609,4.1674,4.167,4.1658,4.1662,4.1636,4.1596,4.1585,4.1572,4.1556,4.1528,4.1728,4.1728,4.1728,4.1633,4.1623,4.1683,4.1672,4.1684,4.1694,4.1754,4.1783,4.1763,4.1736,4.1663,4.1655,4.159,4.1571,4.1539,4.1515,4.1463,0,0]}]]